User: anonymous   Login
Location: Ash Swamp
(41.5170°N, 74.6157°W)
Time: 22:42:07
(UTC+00:00)
Language:

Cosmos 1869 Rocket - Orbit

View from above orbital plane
View from above orbital plane
View from above satellite
View from above satellite

Ground track
Ground track

The orbit data is extracted from the following two-line orbital elements,

1 18215U 87062B   20275.43688291 +.00000073 +00000-0 +59104-5 0  9991
2 18215 082.5121 236.7073 0021830 121.6037 357.5695 14.83228774773081
Epoch (UTC): 01 October 2020 10:29:06
Eccentricity: 0.0021830
inclination: 82.5121°
perigee height: 604 km
apogee height: 634 km
right ascension of ascending node: 236.7073°
argument of perigee: 121.6037°
revolutions per day: 14.83228774
mean anomaly at epoch: 357.5695°
orbit number at epoch: 77308

The dashed part of the orbit path shows where the satellite is in the earth's shadow,  

DLR